[Iaude] MPEC K204: 2020 KW5 [a=1.19,e=0.61,i=5.1,H=26.4]

mpec at marsden.cfa.harvard.edu mpec at marsden.cfa.harvard.edu
Wed May 27 20:11:30 EDT 2020


M.P.E.C. 2020-K204                                 Issued 2020 May 28, 00:09 UT

     The Minor Planet Electronic Circulars contain information on unusual
         minor planets and routine data on comets.  They are published
    on behalf of Division F of the International Astronomical Union by the
          Minor Planet Center, Smithsonian Astrophysical Observatory,
                          Cambridge, MA 02138, U.S.A.

             Prepared using the Tamkin Foundation Computer Network

                              MPC at CFA.HARVARD.EDU
            URL https://www.minorplanetcenter.net/    ISSN 1523-6714

                                    2020 KW5                                    


Observations:
     K20K05W* C2020 05 27.33734 16 14 43.47 -23 23 43.7          20.1 GVEK204G96
     K20K05W  C2020 05 27.34217 16 14 38.54 -23 24 04.2          19.8 GVEK204G96
     K20K05W  C2020 05 27.34699 16 14 33.40 -23 24 24.0          19.9 GVEK204G96
     K20K05W  C2020 05 27.35181 16 14 28.36 -23 24 44.4          20.0 GVEK204G96
     K20K05W  C2020 05 27.38502 16 13 53.47 -23 27 01.1          19.8 GVEK204I52
     K20K05W  C2020 05 27.38616 16 13 52.26 -23 27 06.4          18.9 GVEK204I52
     K20K05W  C2020 05 27.38729 16 13 51.09 -23 27 11.0          19.1 GVEK204I52
     K20K05W  C2020 05 27.38842 16 13 49.87 -23 27 16.0          19.8 GVEK204I52
     K20K05W KC2020 05 27.39009616 14 00.35 -23 23 51.6          20.3 GVEK204474
     K20K05W KC2020 05 27.39133516 13 59.08 -23 23 57.2          20.0 GVEK204474
     K20K05W KC2020 05 27.39257416 13 57.80 -23 24 02.8          20.0 GVEK204474
     K20K05W KC2020 05 27.39381416 13 56.52 -23 24 08.6          19.8 GVEK204474
     K20K05W KC2020 05 27.39505416 13 55.21 -23 24 13.9          20.4 GVEK204474
     K20K05W KC2020 05 27.39629516 13 53.91 -23 24 19.7          20.4 GVEK204474
     K20K05W KC2020 05 27.57840216 10 34.37 -23 37 54.5          20.3 GVEK204474
     K20K05W KC2020 05 27.57964216 10 32.94 -23 38 00.0          20.5 GVEK204474
     K20K05W KC2020 05 27.58212316 10 30.10 -23 38 11.0          20.2 GVEK204474
     K20K05W KC2020 05 27.58336516 10 28.69 -23 38 16.6          19.8 GVEK204474
     K20K05W KC2020 05 27.58460616 10 27.24 -23 38 22.0          20.1 GVEK204474
     K20K05W bC2020 05 27.94858316 03 19.60 -24 11 59.6          20.4 GVEK204L01
     K20K05W bC2020 05 27.94963816 03 18.19 -24 12 05.4          20.4 GVEK204L01
     K20K05W KC2020 05 27.95043016 03 17.66 -24 12 08.4          19.8 GVEK204104
     K20K05W bC2020 05 27.95069016 03 16.79 -24 12 10.4          20.2 GVEK204L01
     K20K05W bC2020 05 27.95226916 03 14.59 -24 12 18.7          19.9 GVEK204L01
     K20K05W KC2020 05 27.95937216 03 05.49 -24 12 54.8          19.5 GVEK204104
     K20K05W KC2020 05 27.96531116 02 57.41 -24 13 25.1          19.8 GVEK204104
     K20K05W KC2020 05 27.98049 16 02 49.08 -24 10 38.9          20.6 GVEK204X31
     K20K05W KC2020 05 27.98690 16 02 40.50 -24 11 14.8          20.0 GVEK204X31

Observer details:
104 San Marcello Pistoiese.  Observers P. Bacci, M. Maestripieri.  Measurers
    P. Bacci, L. Tesi, G. Fagioli.  0.60-m reflector + CCD.
474 Mount John Observatory, Lake Tekapo.  Observers A. C. Gilmore, P. M.
    Kilmartin.  Measurer P. M. Kilmartin.  1.0-m f/7.7 reflector + CCD.
G96 Mt. Lemmon Survey.  Observer D. Rankin.  Measurers E. J. Christensen, G.
    A. Farneth, D. C. Fuls, A. R. Gibbs, A. D. Grauer, H. Groeller, R. A.
    Kowalski, S. M. Larson, G. J. Leonard, T. A. Pruyne, D. Rankin, R. L.
    Seaman, F. C. Shelly, K. W. Wierzchos.  1.5-m reflector + 10K CCD.
I52 Steward Observatory, Mt. Lemmon Station.  Observer R. A. Kowalski.
    Measurers E. J. Christensen, G. A. Farneth, D. C. Fuls, A. R. Gibbs, A. D.
    Grauer, H. Groeller, R. A. Kowalski, S. M. Larson, G. J. Leonard, T. A.
    Pruyne, D. Rankin, R. L. Seaman, F. C. Shelly, K. W. Wierzchos.  1.0-m
    reflector + CCD.
L01 Visnjan Observatory, Tican.  Observer K. Korlevic.  1.0-m f/2.9 reflector
    + CCD.
X31 Galileo Galilei Observatory, Oro Verde.  Observer C. Fornari.  0.40-m f/8
    Ritchey-Chretien + CCD.

Orbital elements:
2020 KW5                                                 Earth MOID = 0.0076 AU
Epoch 2020 May 31.0 TT = JDT 2459000.5                  Pike
M 316.88080              (2000.0)            P               Q
n   0.76211781     Peri.  300.33057     +0.99235866     -0.09311125
a   1.1870107      Node    65.11726     +0.11907526     +0.89463309
e   0.6077229      Incl.    5.12017     -0.03233221     +0.43699191
P   1.29           H   26.4           G   0.15           U   8
Residuals in seconds of arc
200527 G96  0.1-  0.3+    200527 474  0.1-  0.1-    200527 L01  0.2-  0.2-
200527 G96  1.4+  0.1-    200527 474  0.0   0.3-    200527 104  0.0   0.6-
200527 G96  0.2-  0.2+    200527 474  0.3-  0.0     200527 L01  0.1+  0.2+
200527 G96  0.2-  0.2-    200527 474  0.5-  0.2-    200527 L01  0.6-  0.1+
200527 I52  0.0   0.5+    200527 474  0.3+  0.1+    200527 104  0.0   0.4-
200527 I52  0.1-  0.1-    200527 474  0.1+  0.1+    200527 104  0.4+  0.2+
200527 I52  0.2+  0.0     200527 474  0.1+  0.1+    200527 X31  0.1-  0.3+
200527 I52  0.1-  0.3-    200527 474  0.2+  0.0     200527 X31  0.8+  0.2+
200527 474  0.3-  0.0     200527 474  0.2-  0.1+
200527 474  0.1-  0.1-    200527 L01  0.5-  0.1+

Ephemeris:
2020 KW5                 a,e,i = 1.19, 0.61, 5                   q = 0.4656
Date    TT    R. A. (2000) Decl.     Delta      r    Elong.  Phase     V
2020 04 28    17 07 49.3 -18 05 51   0.4022  1.3404   140.1    28.8    26.3
...
2020 05 13    17 08 04.3 -18 41 30   0.2146  1.2076   154.4    21.2    24.5
...
2020 05 21    16 57 17.7 -19 50 34   0.1215  1.1298   164.6    13.7    22.9
...
2020 05 27    16 19 52.8 -22 58 54   0.05484 1.0681   178.1     1.8    20.5
2020 05 28    16 02 13.5 -24 13 19   0.04425 1.0575   175.0     4.8    20.2
2020 05 29    15 33 07.0 -25 56 34   0.03408 1.0469   167.6    12.0    19.9
...
2020 06 04    06 53 18.4 +06 30 55   0.04008 0.9815    34.0   144.7    26.9
...
2020 06 12    05 53 06.7 +14 06 11   0.1282  0.8903    11.7   166.6
...
2020 06 27    05 37 41.5 +16 41 31   0.3168  0.7111    12.8   161.6    34.7

M. P. C. Staff               (C) Copyright 2020 MPC           M.P.E.C. 2020-K204




More information about the Iaude mailing list